Time,TemperatureF,DewpointF,PressureIn,WindDirection,WindDirectionDegrees,WindSpeedMPH,WindSpeedGustMPH,Humidity,HourlyPrecipIn,Conditions,Clouds,dailyrainin,SolarRadiationWatts/m^2,SoftwareType,DateUTC
2013-10-12 00:11:00,74.8,73.0,30.00,South,184,0.0,3.0,95,0.00,,,0.11,0,weatherlink.com 1.10,2013-10-12 10:11:00,
2013-10-12 00:25:00,74.9,74.0,30.00,South,184,0.0,3.0,96,0.00,,,0.11,0,weatherlink.com 1.10,2013-10-12 10:25:00,
2013-10-12 00:40:00,74.9,74.0,29.99,South,185,1.0,2.0,96,0.00,,,0.00,0,weatherlink.com 1.10,2013-10-12 10:40:00,
2013-10-12 00:56:00,74.5,73.0,30.00,WSW,257,4.0,6.0,96,0.00,,,0.00,0,weatherlink.com 1.10,2013-10-12 10:56:00,
2013-10-12 01:11:00,74.4,73.0,29.99,WSW,257,5.0,6.0,96,0.00,,,0.00,0,weatherlink.com 1.10,2013-10-12 11:11:00,
2013-10-12 01:26:00,74.3,73.0,29.99,WSW,240,4.0,7.0,95,0.00,,,0.00,0,weatherlink.com 1.10,2013-10-12 11:26:00,
2013-10-12 01:41:00,74.3,73.0,29.98,WSW,247,1.0,6.0,95,0.00,,,0.00,0,weatherlink.com 1.10,2013-10-12 11:41:00,
2013-10-12 01:56:00,74.6,73.0,29.98,WSW,245,1.0,3.0,95,0.00,,,0.00,0,weatherlink.com 1.10,2013-10-12 11:56:00,
2013-10-12 02:11:00,74.6,73.0,29.97,WSW,244,1.0,3.0,95,0.00,,,0.00,0,weatherlink.com 1.10,2013-10-12 12:11:00,
2013-10-12 02:26:00,74.5,73.0,29.97,WSW,245,0.0,2.0,95,0.00,,,0.00,0,weatherlink.com 1.10,2013-10-12 12:26:00,
2013-10-12 02:41:00,74.7,73.0,29.97,WSW,245,0.0,2.0,95,0.00,,,0.00,0,weatherlink.com 1.10,2013-10-12 12:41:00,
2013-10-12 02:56:00,74.6,73.0,29.96,WSW,245,0.0,2.0,95,0.00,,,0.00,0,weatherlink.com 1.10,2013-10-12 12:56:00,
2013-10-12 03:11:00,74.4,73.0,29.96,WSW,245,0.0,0.0,95,0.00,,,0.00,0,weatherlink.com 1.10,2013-10-12 13:11:00,
2013-10-12 03:26:00,74.2,73.0,29.96,WSW,245,0.0,1.0,95,0.00,,,0.00,0,weatherlink.com 1.10,2013-10-12 13:26:00,
2013-10-12 03:41:00,74.1,73.0,29.96,WSW,245,1.0,1.0,95,0.00,,,0.00,0,weatherlink.com 1.10,2013-10-12 13:41:00,
2013-10-12 03:57:00,74.2,73.0,29.96,WSW,245,2.0,2.0,95,0.00,,,0.00,0,weatherlink.com 1.10,2013-10-12 13:57:00,
2013-10-12 04:12:00,74.3,73.0,29.96,WSW,245,1.0,2.0,95,0.00,,,0.00,0,weatherlink.com 1.10,2013-10-12 14:12:00,
2013-10-12 04:27:00,74.4,73.0,29.96,WSW,245,2.0,2.0,95,0.00,,,0.00,0,weatherlink.com 1.10,2013-10-12 14:27:00,
2013-10-12 04:42:00,74.3,73.0,29.96,WSW,245,1.0,2.0,95,0.00,,,0.00,0,weatherlink.com 1.10,2013-10-12 14:42:00,
2013-10-12 04:57:00,74.2,73.0,29.96,WSW,245,1.0,1.0,95,0.00,,,0.00,0,weatherlink.com 1.10,2013-10-12 14:57:00,
2013-10-12 05:12:00,74.1,73.0,29.97,WSW,245,1.0,2.0,95,0.00,,,0.00,0,weatherlink.com 1.10,2013-10-12 15:12:00,
2013-10-12 05:27:00,74.1,73.0,29.97,WSW,245,0.0,2.0,95,0.00,,,0.00,0,weatherlink.com 1.10,2013-10-12 15:27:00,
2013-10-12 05:42:00,74.2,73.0,29.97,WSW,245,2.0,3.0,96,0.00,,,0.00,0,weatherlink.com 1.10,2013-10-12 15:42:00,
2013-10-12 05:57:00,74.0,73.0,29.97,WSW,245,2.0,3.0,95,0.00,,,0.00,0,weatherlink.com 1.10,2013-10-12 15:57:00,
2013-10-12 06:12:00,74.0,73.0,29.97,WSW,245,0.0,2.0,95,0.00,,,0.00,0,weatherlink.com 1.10,2013-10-12 16:12:00,
2013-10-12 06:27:00,74.0,73.0,29.97,WSW,245,2.0,3.0,95,0.00,,,0.00,5,weatherlink.com 1.10,2013-10-12 16:27:00,
2013-10-12 06:44:00,74.0,73.0,29.97,WSW,250,1.0,5.0,95,0.00,,,0.00,32,weatherlink.com 1.10,2013-10-12 16:44:00,
2013-10-12 06:59:00,74.7,73.0,29.98,WSW,250,1.0,4.0,95,0.00,,,0.00,62,weatherlink.com 1.10,2013-10-12 16:59:00,
2013-10-12 07:13:00,75.8,74.0,29.98,WSW,250,0.0,2.0,95,0.00,,,0.00,135,weatherlink.com 1.10,2013-10-12 17:13:00,
2013-10-12 07:29:00,77.2,75.0,29.98,WSW,250,0.0,1.0,93,0.00,,,0.00,197,weatherlink.com 1.10,2013-10-12 17:29:00,
2013-10-12 07:44:00,77.8,75.0,29.99,WSW,250,0.0,3.0,91,0.00,,,0.00,195,weatherlink.com 1.10,2013-10-12 17:44:00,
2013-10-12 07:59:00,78.0,75.0,29.99,WSW,250,0.0,2.0,91,0.00,,,0.00,197,weatherlink.com 1.10,2013-10-12 17:59:00,
2013-10-12 08:14:00,78.3,75.0,30.00,WSW,250,0.0,2.0,90,0.00,,,0.00,250,weatherlink.com 1.10,2013-10-12 18:14:00,
2013-10-12 08:29:00,78.9,76.0,30.00,WSW,250,1.0,3.0,89,0.00,,,0.00,306,weatherlink.com 1.10,2013-10-12 18:29:00,
2013-10-12 08:44:00,78.9,75.0,30.00,West,259,0.0,3.0,88,0.00,,,0.00,297,weatherlink.com 1.10,2013-10-12 18:44:00,
2013-10-12 08:59:00,78.8,75.0,30.01,WNW,300,1.0,3.0,89,0.00,,,0.00,246,weatherlink.com 1.10,2013-10-12 18:59:00,
2013-10-12 09:14:00,79.1,76.0,30.01,WNW,300,2.0,3.0,89,0.00,,,0.00,332,weatherlink.com 1.10,2013-10-12 19:14:00,
2013-10-12 09:29:00,79.4,75.0,30.01,NW,304,4.0,4.0,87,0.00,,,0.00,475,weatherlink.com 1.10,2013-10-12 19:29:00,
2013-10-12 09:44:00,80.0,75.0,30.01,NW,326,0.0,4.0,85,0.00,,,0.00,533,weatherlink.com 1.10,2013-10-12 19:44:00,
2013-10-12 09:59:00,80.5,75.0,30.01,NNW,348,1.0,4.0,83,0.00,,,0.00,497,weatherlink.com 1.10,2013-10-12 19:59:00,
2013-10-12 10:14:00,80.5,74.0,30.00,North,353,3.0,6.0,81,0.00,,,0.00,564,weatherlink.com 1.10,2013-10-12 20:14:00,
2013-10-12 10:29:00,81.6,75.0,30.01,North,359,4.0,6.0,79,0.00,,,0.00,587,weatherlink.com 1.10,2013-10-12 20:29:00,
2013-10-12 10:44:00,82.1,75.0,30.00,NE,47,3.0,5.0,78,0.00,,,0.00,628,weatherlink.com 1.10,2013-10-12 20:44:00,
2013-10-12 10:59:00,82.8,75.0,30.00,NE,39,1.0,4.0,77,0.00,,,0.00,729,weatherlink.com 1.10,2013-10-12 20:59:00,
2013-10-12 11:14:00,83.0,75.0,29.99,NE,49,3.0,5.0,76,0.00,,,0.00,754,weatherlink.com 1.10,2013-10-12 21:14:00,
2013-10-12 11:29:00,82.9,75.0,29.99,NNE,16,2.0,6.0,78,0.00,,,0.00,745,weatherlink.com 1.10,2013-10-12 21:29:00,
2013-10-12 11:45:00,83.2,75.0,29.98,NNE,24,4.0,6.0,76,0.00,,,0.00,768,weatherlink.com 1.10,2013-10-12 21:45:00,
2013-10-12 12:00:00,83.0,74.0,29.97,NE,55,5.0,8.0,75,0.00,,,0.00,772,weatherlink.com 1.10,2013-10-12 22:00:00,
2013-10-12 12:15:00,82.9,75.0,29.97,NNE,14,6.0,7.0,77,0.00,,,0.00,819,weatherlink.com 1.10,2013-10-12 22:15:00,
2013-10-12 12:30:00,83.3,76.0,29.97,East,94,4.0,8.0,79,0.00,,,0.00,851,weatherlink.com 1.10,2013-10-12 22:30:00,
2013-10-12 12:45:00,83.1,76.0,29.96,NE,35,4.0,8.0,78,0.00,,,0.00,868,weatherlink.com 1.10,2013-10-12 22:45:00,
2013-10-12 13:00:00,83.7,77.0,29.95,NE,48,2.0,7.0,79,0.00,,,0.00,817,weatherlink.com 1.10,2013-10-12 23:00:00,
2013-10-12 13:15:00,83.2,76.0,29.95,NNE,30,2.0,6.0,79,0.00,,,0.00,821,weatherlink.com 1.10,2013-10-12 23:15:00,
2013-10-12 13:30:00,83.0,76.0,29.95,ENE,66,5.0,7.0,79,0.00,,,0.00,343,weatherlink.com 1.10,2013-10-12 23:30:00,
2013-10-12 13:45:00,83.4,76.0,29.94,NNE,32,2.0,5.0,78,0.00,,,0.00,659,weatherlink.com 1.10,2013-10-12 23:45:00,
2013-10-12 14:00:00,82.5,75.0,29.93,East,90,4.0,6.0,78,0.00,,,0.00,274,weatherlink.com 1.10,2013-10-13 00:00:00,
2013-10-12 14:15:00,82.4,75.0,29.93,NE,39,1.0,6.0,78,0.00,,,0.00,302,weatherlink.com 1.10,2013-10-13 00:15:00,
2013-10-12 14:31:00,81.7,74.0,29.93,NNE,28,1.0,6.0,78,0.00,,,0.00,251,weatherlink.com 1.10,2013-10-13 00:31:00,
2013-10-12 14:46:00,81.5,74.0,29.93,NNE,26,0.0,6.0,79,0.00,,,0.00,202,weatherlink.com 1.10,2013-10-13 00:46:00,
2013-10-12 15:01:00,81.2,75.0,29.93,NE,40,2.0,4.0,82,0.00,,,0.00,185,weatherlink.com 1.10,2013-10-13 01:01:00,
2013-10-12 15:16:00,80.9,75.0,29.93,NE,40,2.0,4.0,81,0.00,,,0.00,220,weatherlink.com 1.10,2013-10-13 01:16:00,
2013-10-12 15:31:00,80.9,75.0,29.93,NE,34,2.0,4.0,82,0.00,,,0.00,202,weatherlink.com 1.10,2013-10-13 01:31:00,
2013-10-12 15:46:00,80.9,75.0,29.94,NNE,32,1.0,3.0,83,0.00,,,0.00,181,weatherlink.com 1.10,2013-10-13 01:46:00,
2013-10-12 16:01:00,80.6,74.0,29.94,NNE,32,1.0,4.0,80,0.00,,,0.00,155,weatherlink.com 1.10,2013-10-13 02:01:00,
2013-10-12 16:16:00,80.4,75.0,29.94,NE,34,1.0,3.0,83,0.00,,,0.00,137,weatherlink.com 1.10,2013-10-13 02:16:00,
2013-10-12 16:31:00,80.3,75.0,29.94,NNE,33,3.0,3.0,83,0.00,,,0.00,91,weatherlink.com 1.10,2013-10-13 02:31:00,
2013-10-12 16:46:00,80.4,75.0,29.95,ENE,57,1.0,5.0,82,0.00,,,0.00,107,weatherlink.com 1.10,2013-10-13 02:46:00,
2013-10-12 17:01:00,80.0,74.0,29.95,NE,53,2.0,4.0,83,0.00,,,0.00,84,weatherlink.com 1.10,2013-10-13 03:01:00,
2013-10-12 17:16:00,79.7,75.0,29.95,NE,53,2.0,3.0,84,0.00,,,0.00,58,weatherlink.com 1.10,2013-10-13 03:16:00,
2013-10-12 17:31:00,79.4,75.0,29.95,NE,53,2.0,3.0,85,0.00,,,0.00,35,weatherlink.com 1.10,2013-10-13 03:31:00,
2013-10-12 17:47:00,79.0,75.0,29.96,NE,52,2.0,3.0,86,0.00,,,0.00,16,weatherlink.com 1.10,2013-10-13 03:47:00,
2013-10-12 18:02:00,78.7,75.0,29.96,NE,52,0.0,1.0,87,0.00,,,0.00,5,weatherlink.com 1.10,2013-10-13 04:02:00,
2013-10-12 18:17:00,78.4,75.0,29.96,NE,51,0.0,2.0,88,0.00,,,0.00,0,weatherlink.com 1.10,2013-10-13 04:17:00,
2013-10-12 18:32:00,78.4,75.0,29.97,NE,51,0.0,1.0,88,0.00,,,0.00,0,weatherlink.com 1.10,2013-10-13 04:32:00,
2013-10-12 18:47:00,78.2,74.0,29.97,NE,51,0.0,2.0,88,0.00,,,0.00,0,weatherlink.com 1.10,2013-10-13 04:47:00,
2013-10-12 19:02:00,78.2,74.0,29.97,NE,51,0.0,0.0,87,0.00,,,0.00,0,weatherlink.com 1.10,2013-10-13 05:02:00,
2013-10-12 19:17:00,78.2,74.0,29.98,NE,51,0.0,0.0,88,0.00,,,0.00,0,weatherlink.com 1.10,2013-10-13 05:17:00,
2013-10-12 19:34:00,78.2,74.0,29.98,ENE,59,0.0,3.0,88,0.00,,,0.00,0,weatherlink.com 1.10,2013-10-13 05:34:00,
2013-10-12 19:47:00,78.2,74.0,29.98,ENE,59,0.0,3.0,88,0.00,,,0.00,0,weatherlink.com 1.10,2013-10-13 05:47:00,
2013-10-12 20:02:00,78.1,74.0,29.99,ENE,61,0.0,3.0,87,0.00,,,0.00,0,weatherlink.com 1.10,2013-10-13 06:02:00,
2013-10-12 20:17:00,78.2,74.0,30.00,ENE,78,3.0,5.0,88,0.00,,,0.00,0,weatherlink.com 1.10,2013-10-13 06:17:00,
2013-10-12 20:32:00,78.2,74.0,30.00,East,79,2.0,4.0,88,0.00,,,0.00,0,weatherlink.com 1.10,2013-10-13 06:32:00,
2013-10-12 20:47:00,78.3,75.0,30.00,ENE,78,0.0,5.0,88,0.00,,,0.00,0,weatherlink.com 1.10,2013-10-13 06:47:00,
2013-10-12 21:02:00,78.1,74.0,30.01,ESE,110,3.0,5.0,88,0.00,,,0.00,0,weatherlink.com 1.10,2013-10-13 07:02:00,
2013-10-12 21:17:00,78.2,74.0,30.01,ESE,107,1.0,5.0,88,0.00,,,0.00,0,weatherlink.com 1.10,2013-10-13 07:17:00,
2013-10-12 21:34:00,78.0,74.0,30.01,ESE,104,0.0,4.0,87,0.00,,,0.00,0,weatherlink.com 1.10,2013-10-13 07:34:00,
2013-10-12 21:49:00,77.8,74.0,30.01,ESE,104,0.0,3.0,88,0.00,,,0.00,0,weatherlink.com 1.10,2013-10-13 07:49:00,
2013-10-12 22:04:00,77.9,74.0,30.01,ESE,107,2.0,3.0,88,0.00,,,0.00,0,weatherlink.com 1.10,2013-10-13 08:04:00,
2013-10-12 22:19:00,78.0,74.0,30.00,ESE,108,3.0,6.0,88,0.00,,,0.00,0,weatherlink.com 1.10,2013-10-13 08:19:00,
2013-10-12 22:34:00,77.8,74.0,30.01,ESE,119,1.0,3.0,88,0.00,,,0.00,0,weatherlink.com 1.10,2013-10-13 08:34:00,
2013-10-12 22:49:00,77.8,74.0,30.00,SE,128,3.0,5.0,89,0.00,,,0.00,0,weatherlink.com 1.10,2013-10-13 08:49:00,
2013-10-12 23:04:00,77.8,74.0,30.00,ESE,109,3.0,6.0,88,0.00,,,0.00,0,weatherlink.com 1.10,2013-10-13 09:04:00,
2013-10-12 23:19:00,77.9,75.0,30.00,ESE,114,1.0,4.0,89,0.00,,,0.00,0,weatherlink.com 1.10,2013-10-13 09:19:00,
2013-10-12 23:34:00,77.9,75.0,30.00,ESE,114,2.0,4.0,89,0.00,,,0.00,0,weatherlink.com 1.10,2013-10-13 09:34:00,
2013-10-12 23:49:00,77.7,74.0,29.99,SE,124,3.0,6.0,88,0.00,,,0.00,0,weatherlink.com 1.10,2013-10-13 09:49:00,